Regional Weather Roundup
Issued by NWS

Home | Current Version | Previous Version | Graphics & Text | Print | Product List | Glossary Off
Versions: 1 2 3 4 5 6 7 8 9 10 11 12 13 14 15 16 17 18 19 20 21 22 23 24 25 26 27 28 29 30 31 32 33 34 35 36 37 38 39 40 41 42 43 44 45 46 47 48 49 50

000
ASUS43 KMPX 062010
RWRMN
WEATHER ROUNDUP FOR MINNESOTA
NATIONAL WEATHER SERVICE TWIN CITIES/CHANHASSEN MN
200 PM CST SAT FEB 06 2016


NOTE: "FAIR" INDICATES FEW OR NO CLOUDS BELOW 12,000 FEET WITH NO
SIGNIFICANT WEATHER AND/OR OBSTRUCTIONS TO VISIBILITY. N/A MEANS
CURRENT SKY AND/OR WEATHER CONDITIONS ARE NOT AVAILABLE.

MNZ060>063-068>070-062100-
   Twin Cities Metro

CITY           SKY/WX    TMP DP  RH WIND       PRES   REMARKS
TWIN CITIES    PTSUNNY   36  26  67 S12       29.98F
ST PAUL        PTSUNNY   33  27  78 S16       29.99F WCI  23
CRYSTAL        MOSUNNY   36  26  67 S12       29.95F
BLAINE         PTSUNNY   37  28  70 S9        29.95F
LAKEVILLE      MOSUNNY   34  27  75 S13G18    29.98F WCI  25
EDEN PRAIRIE   MOSUNNY   35  26  69 SW16G26   29.96F WCI  25
SOUTH ST PAUL  CLOUDY    34  27  74 S17G24    29.98F WCI  24
LAKE ELMO      FAIR      32  28  86 S13       29.99F WCI  22
$$
MNZ001>005-007-008-013>017-022>024-027-028-062100-
   Northwest Minnesota

CITY           SKY/WX    TMP DP  RH WIND       PRES   REMARKS
BEMIDJI        CLOUDY    34  25  69 S8        29.72F WCI  27
HALLOCK        CLOUDY    32  28  86 S20       29.62F WCI  20
ROSEAU         LGT SNOW  32  27  80 S13       29.68F WCI  22
WARROAD        FLURRIES  32  27  80 SE8       29.68F WCI  25
THIEF RVR FALL MOSUNNY   34  25  69 S13       29.68F WCI  25
CROOKSTON      CLOUDY    34  28  80 S16       29.69F WCI  23
FOSSTON        PTSUNNY   32  27  80 S15       29.71F WCI  22
DETROIT LAKES  MOSUNNY   36  28  75 SW14      29.75F
MOORHEAD       CLOUDY    36  28  75 S9        29.74F
PARK RAPIDS    CLOUDY    37  25  61 S10       29.74F
MAHNOMEN       MOCLDY    35  28  75 SW20      29.72F WCI  23
$$
MNZ006-009>011-018-025>026-062100-
   North Central Minnesota

CITY           SKY/WX    TMP DP  RH WIND       PRES   REMARKS
BAUDETTE       CLOUDY    32  22  66 S9        29.70F WCI  24
FLAG ISLAND    CLOUDY    27  21  80 SE6       29.70F WCI  20
INTL FALLS     CLOUDY    31  21  66 SE9       29.75F WCI  23
WASKISH        CLOUDY    36  25  64 S6        29.72F
LONGVILLE      CLOUDY    36  25  64 SE9       29.77F
GRAND RAPIDS   CLOUDY    34  23  64 S15       29.79F WCI  24
CRANE LAKE     MOSUNNY   30  19  64 SE5       29.81F WCI  25
ORR            CLOUDY    34  19  55 SE9G16    29.75F WCI  26
COOK           MOSUNNY   32  21  64 S10       29.78F WCI  24
WALKER         CLOUDY    35  24  65 S9        29.73F WCI  27
$$
MNZ012-019>021-037-062100-
   Northeast Minnesota

CITY           SKY/WX    TMP DP  RH WIND       PRES   REMARKS
DULUTH         CLOUDY    33  23  66 S14G22    29.84F WCI  23
ELY            CLOUDY    30  19  64 SE8       29.79F WCI  23
HIBBING        PTSUNNY   33  22  63 S10G17    29.79F WCI  25
EVELETH        MOSUNNY   34  23  64 S12       29.81F WCI  25
DULUTH HARBOR  CLOUDY    36  27  69 S15       29.89F
TWO HARBORS    CLOUDY    34  25  69 SW8       29.85F WCI  27
SILVER BAY     CLOUDY    30  21  69 S12       29.85F WCI  21
GRAND MARAIS     N/A     30  24  78 SW5       29.92F WCI  25
G MARAIS ARPRT CLOUDY    25  18  74 S5        29.86F WCI  19
$$
MNZ029>031-032-039>041-046>048-054>057-064-062100-
   West Central Minnesota

CITY           SKY/WX    TMP DP  RH WIND       PRES   REMARKS
FERGUS FALLS   MOSUNNY   39  30  70 S13       29.80F
WHEATON        CLOUDY    43  30  61 SW13      29.79F
MORRIS         MOSUNNY   39  28  65 S14       29.79F
ALEXANDRIA     CLOUDY    38  25  59 SW16      29.80F
ELBOW LAKE     FAIR      36  29  75 S13       29.79F HAZE
WADENA         CLOUDY    37  27  65 S10       29.76F
GLENWOOD       CLOUDY    37  27  65 S17G24    29.82F
APPLETON       CLOUDY    39  27  60 SW13      29.82F
BENSON         CLOUDY    39  28  65 SW10      29.83F
ORTONVILLE     PTSUNNY   39  27  60 SW10G18   29.80F
MADISON          N/A     39  27  60 SW22      29.82F
WILLMAR        FAIR      37  30  75 S5        29.88F
$$
MNZ033>034-036-042>043-049>051-058-059-062100-
   Central Minnesota

CITY           SKY/WX    TMP DP  RH WIND       PRES   REMARKS
ST CLOUD       PTSUNNY   36  25  64 S15       29.88F
SAUK CENTRE    FAIR      36  27  71 S15       29.82F
PAYNESVILLE    CLOUDY    37  28  69 S12G18    29.87F
AITKIN         MOSUNNY   37  23  56 S9        29.81F
PINE RIVER     MOSUNNY   36  25  64 S10       29.82F
BRAINERD       CLOUDY    34  25  69 S14       29.82F WCI  25
STAPLES        CLOUDY    37  25  60 S9        29.78F
LONG PRAIRIE   CLOUDY    36  27  69 S15       29.82F
LITTLE FALLS   CLOUDY    36  27  69 S9G17     29.85F
LITCHFIELD     MOSUNNY   37  28  70 S8        29.89F
BUFFALO        MOSUNNY   35  26  69 S8G16     29.94F WCI  28
MAPLE LAKE     PTSUNNY   36  28  73 S8G17     29.92F
$$
MNZ037-044-045-052-053-062100-
   East Central Minnesota

CITY           SKY/WX    TMP DP  RH WIND       PRES   REMARKS
PRINCETON      CLOUDY    37  27  65 S9G17     29.91F
MORA           MOSUNNY   34  25  69 S14       29.92F WCI  24
CAMBRIDGE      MOSUNNY   37  25  60 S13       29.90F
RUSH CITY      MOSUNNY   34  26  72 S12       29.93F WCI  25
MOOSE LAKE     PTSUNNY   34  27  75 S13       29.85F WCI  25
HINCKLEY       FAIR      34  28  80 S16       29.91F WCI  23
CLOQUET        PTSUNNY   34  23  64 S10G17    29.84F WCI  26
MCGREGOR       CLOUDY    36  27  69 S13G18    29.84F
$$
MNZ071>073-080-081-089-090-097-098-062100-
   Southwest Minnesota

CITY           SKY/WX    TMP DP  RH WIND       PRES   REMARKS
MONTEVIDEO     MOSUNNY   37  28  70 SW15      29.86F
GRANITE FALLS  PTSUNNY   38  29  69 S17G24    29.89F
CANBY          PTSUNNY   41  29  63 SW21      29.85F
MARSHALL       CLOUDY    36  25  64 SW24      29.85F
REDWOOD FALLS  MOSUNNY   36  25  64 SW17      29.90F
OLIVIA         MOSUNNY   36  30  80 S13       29.89F
PIPESTONE        N/A     34  21  60 SW16      29.92F WCI  23
WINDOM         MOSUNNY   34  27  75 S18G24    29.95F WCI  23
WORTHINGTON    MOSUNNY   34  23  64 S20       29.97F WCI  22
JACKSON        MOSUNNY   34  27  75 SW16G24   29.98F WCI  23
TRACY          MOSUNNY   34  26  70 SW25      29.90F WCI  22
SLAYTON        MOSUNNY   32  27  81 S18       29.92F WCI  20
$$
MNZ065>067-074>077-082>085-091>093-062100-
   South Central Minnesota

CITY           SKY/WX    TMP DP  RH WIND       PRES   REMARKS
MANKATO        SUNNY     32  25  74 S13       29.99F WCI  22
NEW ULM        MOSUNNY   36  27  69 S16       29.94F
ST JAMES       MOSUNNY   36  28  75 S18       29.98F
FAIRMONT       MOSUNNY   32  27  80 S15G21    30.00F WCI  22
GLENCOE        CLOUDY    36  30  80 S13G21    29.94F
FARIBAULT      MOSUNNY   34  27  75 S15G22    30.01F WCI  24
OWATONNA       MOSUNNY   32  27  80 S17       30.02F WCI  21
WASECA         MOSUNNY   32  28  86 S20       30.03F WCI  20
ALBERT LEA     CLOUDY    30  27  86 SW16G23   30.03F WCI  19
$$
MNZ078>079-086>088-094>096-062100-
   Southeast Minnesota

CITY           SKY/WX    TMP DP  RH WIND       PRES   REMARKS
ROCHESTER      CLOUDY    27  25  92 S17       30.04F FOG     WCI  14
RED WING       MOSUNNY   34  25  69 S9        30.02F WCI  26
STANTON        MOSUNNY   34  28  77 S12       29.99F WCI  25
DODGE CENTER   CLOUDY    28  27  93 S17       30.03F FOG     WCI  16
WINONA         SUNNY     34  27  75 SW6       30.09F WCI  29
AUSTIN         CLOUDY    28  27  93 S16       30.05F FOG     WCI  17
PRESTON        CLOUDY    28  24  88 S14       30.07F WCI  16
$$
ABBREVIATIONS USED IN REMARKS
   TC - TEMPERATURES IN CELSIUS
  WCI - WIND CHILL INDEX
   HX - HEAT INDEX
  VSB - VISIBILITY
$$



USA.gov is the U.S. government's official web portal to all federal, state and local government web resources and services.